Stations météo

réclame
Mon MeteoGroup
Hallhåxåsen, Suède (2236): Température de l'air & dewpoint: 16.10.2018 16:00:00 - 22.10.2018 16:00:00 (CEST)Hallhåxåsen, Suède (2236): Vitesse du vent & gusts: 16.10.2018 16:00:00 - 22.10.2018 16:00:00 (CEST)Hallhåxåsen, Suède (2236): Direction du vent: 16.10.2018 16:00:00 - 22.10.2018 16:00:00 (CEST)Hallhåxåsen, Suède (2236): reduced air pressure: 16.10.2018 16:00:00 - 22.10.2018 16:00:00 (CEST)Hallhåxåsen, Suède (2236): visibility: 16.10.2018 16:00:00 - 22.10.2018 16:00:00 (CEST)Hallhåxåsen, Suède (2236): Quantités de précipitations: 16.10.2018 16:00:00 - 22.10.2018 16:00:00 (CEST)
Date & Time tt [°C] td [°C] ff [km/h] ff [knt] fx [km/h] fx [knt] dd ppp [hPa] vv [km] rr [mm]
22.10.2018 16:00:00 2,9 0,5 14 7 46 25 W 1002,4 50 0,0
22.10.2018 15:00:00 2,8 0,9 20 11 46 25 W 1002,2 50 0,0
22.10.2018 14:00:00 2,8 0,5 18 10 42 23 WSW 1001,5 50 0,0
22.10.2018 13:00:00 3,3 -0,3 17 9 47 26 WSW 1001,7 50 0,0
22.10.2018 12:00:00 3,5 -0,7 22 12 47 26 WSW 1001,8 50 0,0
22.10.2018 11:00:00 3,5 -0,7 22 12 42 23 WSW 1001,5 50 0,0
22.10.2018 10:00:00 2,6 -0,7 16 9 - - WSW 1002,0 50 0,0
22.10.2018 09:00:00 2,0 -1,1 18 10 - - SW 1002,1 50 -
22.10.2018 08:00:00 2,0 -0,9 13 7 33 18 SW 1002,1 50 0,0
22.10.2018 07:00:00 1,9 -0,5 14 7 32 17 SW 1002,2 50 0,0
22.10.2018 06:00:00 1,8 -0,3 13 7 27 15 WSW 1002,4 50 0,0
22.10.2018 05:00:00 1,3 0,0 11 6 22 12 SW 1002,6 50 0,0
22.10.2018 04:00:00 1,4 0,1 9 5 23 13 WSW 1003,1 50 0,0
22.10.2018 03:00:00 1,1 0,2 6 4 24 13 SW 1003,8 50 0,0
22.10.2018 02:00:00 2,5 1,0 9 5 24 13 W 1003,5 15 0,0
22.10.2018 01:00:00 2,8 1,5 5 3 13 7 W 1003,1 50 0,0
22.10.2018 00:00:00 3,0 2,0 4 2 21 12 SW 1003,1 50 0,0
21.10.2018 23:00:00 3,8 2,3 6 3 27 15 W 1002,9 50 0,0
21.10.2018 22:00:00 4,6 3,7 10 6 27 15 WSW 1002,5 50 0,0
21.10.2018 21:00:00 4,8 4,2 10 5 21 11 WSW 1003,1 38 0,0
21.10.2018 20:00:00 4,9 4,2 8 4 18 10 WSW 1003,4 21 0,0
21.10.2018 19:00:00 5,0 4,1 8 5 22 12 SW 1004,6 46 0,0
21.10.2018 18:00:00 5,2 4,2 11 6 23 13 SW 1004,8 38 0,0
21.10.2018 17:00:00 5,7 4,0 10 5 29 16 SW 1005,4 37 0,0
21.10.2018 16:00:00 6,7 5,0 11 6 29 16 SW 1005,6 50 0,0
21.10.2018 15:00:00 7,3 6,1 9 5 19 10 WSW 1006,3 50 0,0
21.10.2018 14:00:00 7,5 6,8 7 4 22 12 SW 1007,1 41 0,0
21.10.2018 13:00:00 7,3 6,4 11 6 22 12 SSW 1007,2 50 0,0
21.10.2018 12:00:00 7,0 6,3 12 6 21 12 SW 1008,0 50 0,0
21.10.2018 11:00:00 5,3 5,2 8 5 14 8 SSW 1008,4 38 0,0
21.10.2018 10:00:00 4,2 4,1 5 3 16 8 SSW 1008,9 7 0,0
21.10.2018 09:00:00 4,0 3,7 5 3 20 11 S 1009,1 8 0,0
21.10.2018 08:00:00 3,8 3,5 9 5 20 11 S 1008,9 50 0,0
21.10.2018 07:00:00 3,6 3,3 9 5 20 11 S 1010,0 50 0,0
21.10.2018 06:00:00 3,6 3,3 11 6 20 11 S 1009,6 14 0,0
21.10.2018 05:00:00 3,5 3,1 10 6 18 10 SSW 1010,5 7 0,0
21.10.2018 04:00:00 3,4 2,8 8 5 17 9 S 1011,0 41 0,0
21.10.2018 03:00:00 3,3 2,1 7 4 16 9 S 1012,1 50 0,0
21.10.2018 02:00:00 3,0 1,7 5 3 25 14 SSW 1012,8 50 0,0
21.10.2018 01:00:00 3,1 1,5 10 5 25 14 SSW 1014,0 50 0,0
21.10.2018 00:00:00 3,1 1,5 12 6 24 13 S 1015,2 50 0,0
20.10.2018 23:00:00 2,8 1,5 11 6 21 12 S 1016,3 50 0,0
20.10.2018 22:00:00 2,6 1,3 8 5 16 9 S 1017,1 50 0,0
20.10.2018 21:00:00 2,6 1,1 5 3 14 8 S 1018,7 50 0,0
20.10.2018 20:00:00 3,2 1,6 6 3 11 6 S 1018,9 50 0,0
20.10.2018 19:00:00 3,2 1,6 5 3 9 5 SSW 1019,6 50 0,0
20.10.2018 18:00:00 4,3 2,5 4 2 13 7 SSW 1019,5 50 0,0
20.10.2018 17:00:00 5,8 2,6 5 3 21 11 SW 1019,2 50 0,0
20.10.2018 16:00:00 6,8 3,2 6 3 24 13 WSW 1019,2 50 0,0
20.10.2018 15:00:00 7,5 3,4 10 6 24 13 W 1019,3 50 0,0
20.10.2018 14:00:00 7,4 4,5 7 4 19 11 W 1019,3 50 0,0
20.10.2018 13:00:00 6,0 4,3 9 5 17 9 W 1019,7 50 0,0
20.10.2018 12:00:00 5,8 4,4 7 4 15 8 WSW 1019,4 50 0,0
20.10.2018 11:00:00 4,0 3,9 4 2 10 5 SSW 1019,3 46 0,0
20.10.2018 10:00:00 3,1 3,0 4 2 8 5 WSW 1019,3 10 0,0
20.10.2018 09:00:00 2,3 2,2 3 2 11 6 WSW 1018,7 1,4 0,0
20.10.2018 08:00:00 2,3 2,0 3 2 11 6 SW 1018,2 10 0,0
20.10.2018 07:00:00 2,9 2,5 0 0 4 2 N 1017,9 27 0,0
20.10.2018 06:00:00 3,4 2,8 0 0 6 3 N 1017,5 50 0,0
20.10.2018 05:00:00 3,9 2,9 0 0 6 3 N 1017,2 50 0,0
20.10.2018 04:00:00 3,8 3,2 2 1 6 3 ESE 1017,1 50 0,0
20.10.2018 03:00:00 3,6 3,0 0 0 6 3 N 1017,1 50 0,0
20.10.2018 02:00:00 3,9 3,3 0 0 5 3 N 1017,1 50 0,0
20.10.2018 01:00:00 3,3 2,7 2 1 5 3 SSW 1017,9 44 0,0
20.10.2018 00:00:00 3,6 2,9 3 1 10 5 SW 1018,0 42 0,0
19.10.2018 23:00:00 3,7 2,8 3 2 10 5 SSW 1018,1 50 0,0
19.10.2018 22:00:00 4,7 3,2 6 3 9 5 S 1018,0 50 0,0
19.10.2018 21:00:00 4,3 3,3 5 3 8 4 S 1018,5 50 0,0
19.10.2018 20:00:00 4,7 3,4 2 1 8 5 S 1018,5 50 0,0
19.10.2018 19:00:00 5,3 3,6 4 2 8 5 SW 1018,7 50 0,0
19.10.2018 18:00:00 5,8 3,8 4 2 11 6 WSW 1018,5 50 0,0
19.10.2018 17:00:00 6,3 3,8 5 3 18 10 W 1018,6 50 0,0
19.10.2018 16:00:00 7,1 3,3 6 4 25 13 WSW 1018,6 50 0,0
19.10.2018 15:00:00 7,3 3,3 8 4 25 13 W 1018,8 50 0,0
19.10.2018 14:00:00 7,2 2,7 14 8 24 13 W 1018,9 50 0,0
19.10.2018 13:00:00 6,9 2,6 10 6 19 10 W 1019,0 50 0,0
19.10.2018 12:00:00 6,3 2,2 11 6 21 12 W 1019,3 50 0,0
19.10.2018 11:00:00 6,0 2,3 10 5 21 12 WSW 1019,1 50 0,0
19.10.2018 10:00:00 4,8 1,6 9 5 16 9 W 1018,9 50 0,0
19.10.2018 09:00:00 3,2 0,9 6 3 18 10 SSW 1019,0 50 0,0
19.10.2018 08:00:00 3,3 0,4 11 6 18 10 W 1018,5 50 0,0
19.10.2018 07:00:00 3,7 0,4 10 6 24 13 W 1018,3 50 0,0
19.10.2018 06:00:00 4,5 0,3 8 4 24 13 W 1018,1 50 0,0
19.10.2018 05:00:00 3,6 0,3 11 6 31 17 W 1018,1 50 0,0
19.10.2018 04:00:00 3,8 0,7 13 7 34 19 W 1017,6 50 0,0
19.10.2018 03:00:00 4,3 0,8 18 10 38 20 W 1017,3 44 0,0
19.10.2018 02:00:00 4,5 1,0 16 8 38 20 W 1016,8 50 0,0
19.10.2018 01:00:00 3,9 1,3 16 9 38 20 W 1016,2 50 0,0
19.10.2018 00:00:00 3,9 1,1 13 7 39 21 WSW 1016,0 50 0,0
18.10.2018 23:00:00 4,3 0,6 11 6 42 23 SW 1015,7 50 0,0
18.10.2018 22:00:00 4,8 0,6 21 12 42 23 W 1015,2 50 0,0
18.10.2018 21:00:00 5,2 0,8 20 11 39 21 W 1014,9 50 0,0
18.10.2018 20:00:00 4,7 1,0 18 10 34 18 W 1014,7 50 0,0
18.10.2018 19:00:00 5,1 1,6 16 8 34 19 WSW 1014,4 50 0,0
18.10.2018 18:00:00 5,7 1,8 13 7 37 20 WSW 1014,3 50 0,0
18.10.2018 17:00:00 6,2 1,3 18 10 47 25 W 1013,7 50 0,0
18.10.2018 16:00:00 6,3 1,4 17 9 47 26 W 1013,3 50 0,0
18.10.2018 15:00:00 7,3 1,4 21 11 45 24 W 1012,8 50 0,0
18.10.2018 14:00:00 6,5 0,8 19 10 40 22 WSW 1012,9 50 0,0
18.10.2018 13:00:00 6,8 0,7 18 10 37 20 WSW 1012,4 50 0,0
18.10.2018 12:00:00 7,2 1,5 14 7 35 19 WSW 1012,4 44 0,0
18.10.2018 11:00:00 5,9 1,4 14 7 34 19 WSW 1012,7 44 0,0
18.10.2018 10:00:00 4,7 2,1 12 6 30 16 WSW 1012,8 50 0,0
18.10.2018 09:00:00 2,9 1,6 11 6 22 12 W 1013,0 50 0,0
18.10.2018 08:00:00 2,5 1,6 9 5 21 11 SW 1012,1 50 0,0
18.10.2018 07:00:00 1,9 1,6 6 4 14 8 SW 1012,3 43 0,0
18.10.2018 06:00:00 2,6 2,2 5 3 15 8 W 1012,4 24 0,0
18.10.2018 05:00:00 3,3 2,9 8 5 14 7 SW 1012,3 46 0,0
18.10.2018 04:00:00 4,2 3,3 5 3 8 5 SW 1012,3 50 0,0
18.10.2018 03:00:00 4,7 3,7 5 3 8 5 S 1012,3 50 0,0
18.10.2018 02:00:00 4,7 4,0 3 2 6 4 SW 1012,2 50 0,0
18.10.2018 01:00:00 4,6 3,9 3 2 9 5 WSW 1012,3 50 0,0
18.10.2018 00:00:00 4,2 3,6 0 0 12 7 N 1011,9 43 0,0
17.10.2018 23:00:00 5,5 4,9 6 4 12 7 NNW 1011,2 50 0,0
17.10.2018 22:00:00 4,0 3,6 4 2 11 6 W 1010,8 46 0,0
17.10.2018 21:00:00 5,2 4,3 0 0 12 6 N 1010,0 50 0,0
17.10.2018 20:00:00 6,7 5,3 3 2 12 6 SW 1009,3 50 0,0
17.10.2018 19:00:00 7,3 5,3 0 0 4 2 N 1008,9 50 0,0
17.10.2018 18:00:00 7,7 5,2 0 0 8 4 N 1008,8 50 0,0
17.10.2018 17:00:00 9,6 5,2 2 1 11 6 W 1008,3 50 0,0
17.10.2018 16:00:00 11,3 5,6 4 2 14 7 WSW 1007,8 48 0,0
17.10.2018 15:00:00 10,8 5,5 8 4 14 7 SSW 1008,1 50 0,0
17.10.2018 14:00:00 9,4 5,4 6 3 15 8 SSW 1008,5 50 0,0
17.10.2018 13:00:00 10,1 5,3 3 2 15 8 SSW 1008,7 47 0,0
17.10.2018 12:00:00 8,4 5,5 7 4 13 7 SW 1009,1 50 0,0
17.10.2018 11:00:00 6,5 5,1 5 3 13 7 S 1009,6 50 0,0
17.10.2018 10:00:00 6,4 5,2 6 3 16 8 S 1009,8 50 0,0
17.10.2018 09:00:00 5,8 4,9 6 4 16 8 S 1010,2 50 0,0
17.10.2018 08:00:00 5,4 4,5 8 4 17 9 S 1010,3 50 0,0
17.10.2018 07:00:00 5,3 4,3 9 5 19 10 S 1010,5 50 0,0
17.10.2018 06:00:00 5,0 4,0 7 4 23 13 S 1011,4 50 0,0
17.10.2018 05:00:00 4,6 3,7 11 6 27 15 S 1012,0 50 0,0
17.10.2018 04:00:00 4,3 3,4 8 5 27 15 S 1012,3 50 0,0
17.10.2018 03:00:00 4,2 3,2 11 6 26 14 S 1013,2 50 0,0
17.10.2018 02:00:00 4,1 2,9 11 6 26 14 SSE 1013,7 50 0,0
17.10.2018 01:00:00 4,3 2,8 10 6 23 13 SSE 1014,5 50 0,0
17.10.2018 00:00:00 4,6 2,8 10 6 23 13 SSE 1015,2 50 0,0
16.10.2018 23:00:00 4,1 2,9 8 5 18 10 SE 1016,0 50 0,0
16.10.2018 22:00:00 4,3 3,0 8 5 19 10 SE 1016,4 50 0,0
16.10.2018 21:00:00 4,8 3,5 9 5 19 10 SSE 1016,8 50 0,0
16.10.2018 20:00:00 4,7 3,4 6 3 14 8 SSE 1017,5 50 0,0
16.10.2018 19:00:00 5,5 3,5 6 3 14 8 SE 1017,9 50 0,0
16.10.2018 18:00:00 5,5 2,8 6 3 12 6 SSE 1018,4 50 0,0
16.10.2018 17:00:00 6,6 2,7 6 3 13 7 S 1017,9 50 0,0
16.10.2018 16:00:00 8,4 3,8 6 4 14 8 SW 1017,9 50 0,0

tt = Température de l'air
td = dewpoint
ff = Vitesse du vent
fx = gusts
dd = Direction du vent
ppp = reduced air pressure
vv = visibility
rr = Quantités de précipitations

stations d'obs. à proximité